[[{"header":{"parameterUnit":"m.s-1","parameterCategory":1,"la1":30.2991,"la2":30.254,"lo1":-89.0895,"lo2":-89.0444,"dy":0.0017,"dx":0.0017,"nx":28,"ny":28,"refTime":"2024-02-15T09:00:00:Z","depth":0,"parameterNumber":2,"parameterNumberName":"U-component_of_WINDS"},"data":[0,0,0,0,0,0,0,0,0,0,0,0,0,0,0,0,0,0,0,0,0,0,0,0,0,0,0,0,0,0,0,0,0,0,0,0,0,0,0,0,0,0,0,0,0,0,0,0,0,0,0,0,0,0,0,0,0,0,1.4336,1.4337,0,1.4398,1.4399,1.44,1.4415,1.4415,1.4415,1.4414,1.4475,1.4477,1.4479,0,0,0,0,0,0,0,0,0,0,0,0,0,1.4226,1.4228,1.4336,1.4337,1.4338,1.4398,1.4399,1.44,1.4416,1.4415,1.4415,1.4414,1.4475,1.4477,1.4479,0,0,0,0,0,0,0,0,0,0,0,0,0,1.428,1.4229,1.4336,1.4353,1.4355,1.4398,1.4399,1.44,1.4416,1.4415,1.4414,1.4414,1.4474,1.4477,1.448,1.451,0,0,1.4489,1.449,0,0,0,0,0,0,0,0,1.4277,1.4284,1.435,1.4352,1.4354,1.4399,1.4383,1.4437,1.4416,1.4392,1.4414,1.4414,1.445,1.4455,1.4468,1.4512,1.4515,1.4489,1.4491,1.4492,1.4493,0,0,0,0,0,0,0,1.4273,1.4281,1.4361,1.435,1.4353,1.4356,1.4363,1.4393,1.4424,1.4394,1.4396,1.4403,1.4451,1.4465,1.4469,1.4516,1.4489,1.4491,1.4493,1.4494,1.4586,1.4587,0,0,0,0,0,0,1.4267,1.4278,1.4359,1.4363,1.4313,1.4358,1.4366,1.4385,1.4423,1.4429,1.4403,1.4404,1.446,1.4466,1.4471,1.4508,1.4492,1.4495,1.4496,1.4586,1.4586,1.4587,0,0,0,0,0,0,1.4264,1.4274,1.4356,1.4321,1.4331,1.4361,1.4382,1.4386,1.44,1.443,1.4435,1.4412,1.446,1.4467,1.45,1.451,1.4496,1.4499,1.4585,1.4586,1.4587,1.4582,0,0,0,0,0,0,1.4261,1.4273,1.4286,1.4321,1.4333,1.4385,1.4383,1.4388,1.4406,1.4406,1.444,1.4445,1.446,1.4495,1.4503,1.4514,1.4501,1.4584,1.4585,1.4586,1.4582,1.4583,1.4584,0,0,0,0,0,1.4257,1.4282,1.4286,1.4296,1.435,1.4385,1.4392,1.441,1.4407,1.4419,1.4438,1.4444,1.4508,1.4498,1.4507,1.452,1.4583,1.4585,1.4586,1.4581,1.4583,1.4584,0,0,0,0,0,0,1.4247,1.4287,1.4292,1.4329,1.4354,1.4388,1.4404,1.4412,1.4437,1.4436,1.4456,1.4464,1.4495,1.451,1.4499,1.455,1.4545,1.4549,1.4538,1.454,1.4542,1.4537,1.4504,0,0,0,0,0,1.4249,1.4275,1.4308,1.4338,1.435,1.4375,1.4391,1.4402,1.4428,1.4438,1.446,1.4484,1.4509,1.4526,1.4551,1.4584,1.459,1.4596,1.4598,1.4598,1.4601,1.4618,1.462,1.4592,1.4592,1.4592,0,0,1.4253,1.4278,1.4294,1.4336,1.4357,1.4382,1.4384,1.4411,1.443,1.4442,1.4475,1.4491,1.4518,1.4551,1.4566,1.4565,1.461,1.46,1.4601,1.4603,1.462,1.4622,1.4625,1.4593,1.4593,1.4593,0,0,1.4274,1.4297,1.4323,1.4343,1.4374,1.439,1.4396,1.4429,1.4441,1.4473,1.4483,1.4504,1.4548,1.4567,1.4583,1.4609,1.4615,1.4616,1.4623,1.4639,1.4641,1.4644,1.4652,1.4655,1.4619,1.4619,1.4619,0,1.4276,1.4316,1.4335,1.4362,1.4379,1.4392,1.4418,1.4436,1.4474,1.4485,1.4483,1.4537,1.4557,1.4593,1.4599,1.4612,1.4618,1.4613,1.464,1.4642,1.4644,1.4652,1.4655,1.4619,1.4619,1.4619,1.4619,0,1.4315,1.4343,1.436,1.4396,1.4416,1.4442,1.4463,1.448,1.4489,1.4505,1.4537,1.4561,1.459,1.46,1.4609,1.4637,1.4635,1.4636,1.4632,1.4647,1.4654,1.4658,1.4619,1.4619,1.4619,1.4619,0,0,1.4333,1.4378,1.4384,1.44,1.4434,1.4455,1.4481,1.451,1.4524,1.4548,1.4569,1.4605,1.4606,1.4624,1.4635,1.4649,1.4667,1.4648,1.4649,1.465,1.4697,1.4695,1.4699,1.467,1.4671,1.4672,1.4694,0,1.4358,1.4406,1.4422,1.4461,1.4486,1.4497,1.4519,1.4542,1.4557,1.4578,1.4594,1.4619,1.4619,1.463,1.4644,1.4661,1.4676,1.466,1.4689,1.469,1.4681,1.4703,1.4702,1.4723,1.4698,1.4698,1.4699,0,1.4394,1.4419,1.446,1.449,1.4501,1.4521,1.4548,1.4569,1.4594,1.4604,1.4622,1.4632,1.4657,1.4652,1.4686,1.4675,1.4687,1.4697,1.4698,1.4702,1.4695,1.4706,1.473,1.4732,1.4704,1.4703,1.4703,0,1.4401,1.4445,1.4476,1.4489,1.4525,1.4538,1.4553,1.4577,1.4593,1.4617,1.4627,1.4653,1.4667,1.4686,1.4701,1.4696,1.4734,1.473,1.4741,1.4741,1.4749,1.4748,1.4774,1.4757,1.4757,1.4757,1.4757,0,1.4427,1.4451,1.4479,1.4498,1.4525,1.4543,1.4569,1.4585,1.4606,1.4626,1.4637,1.4656,1.4676,1.4696,1.4709,1.4734,1.4741,1.4748,1.4751,1.4747,1.4746,1.4755,1.4754,1.4758,1.4758,1.4758,1.4758,0,1.444,1.446,1.4493,1.4524,1.4532,1.4551,1.4576,1.4594,1.4608,1.4634,1.4641,1.4664,1.4689,1.4706,1.4738,1.4746,1.4773,1.4776,1.4765,1.4766,1.4777,1.4775,1.4809,1.4814,1.4795,1.4795,1.4795,0,1.4455,1.4474,1.4507,1.4522,1.4537,1.4561,1.4578,1.4596,1.4612,1.4641,1.4654,1.468,1.4701,1.474,1.4758,1.4782,1.4785,1.4795,1.4789,1.4784,1.4784,1.4783,1.4784,1.4796,1.4796,1.4797,1.4797,0,1.448,1.4488,1.4512,1.4539,1.4558,1.458,1.4602,1.4613,1.4634,1.4652,1.4677,1.4694,1.4726,1.4751,1.4776,1.479,1.4796,1.4798,1.4802,1.4798,1.4791,1.4794,1.4767,1.4798,1.4798,1.4798,1.4797,1.4797,1.4494,1.4511,1.4536,1.4562,1.458,1.46,1.4617,1.4634,1.4656,1.4685,1.4693,1.4719,1.4742,1.4776,1.479,1.481,1.4809,1.4815,1.4817,1.4818,1.4817,1.4788,1.4815,1.4815,1.4815,1.4815,1.4815,0,1.4518,1.4535,1.4558,1.4589,1.4608,1.4613,1.4637,1.4652,1.4676,1.4697,1.4717,1.4746,1.4769,1.4789,1.4813,1.4825,1.4828,1.483,1.483,1.4832,1.4817,1.4811,1.4827,1.4827,1.4827,1.4827,1.4827,1.4827,1.4533,1.4562,1.4573,1.461,1.4626,1.4653,1.4666,1.4683,1.47,1.4731,1.4751,1.4764,1.4784,1.4809,1.483,1.4835,1.4843,1.4845,1.485,1.4835,1.4834,1.4832,1.4827,1.4846,1.4846,1.4864,1.4864,1.4865]},{"header":{"parameterUnit":"m.s-1","parameterCategory":1,"la1":30.2991,"la2":30.254,"lo1":-89.0895,"lo2":-89.0444,"dy":0.0017,"dx":0.0017,"nx":28,"ny":28,"refTime":"2024-02-15T09:00:00:Z","depth":0,"parameterNumber":3,"parameterNumberName":"V-component_of_WINDS"},"data":[0,0,0,0,0,0,0,0,0,0,0,0,0,0,0,0,0,0,0,0,0,0,0,0,0,0,0,0,0,0,0,0,0,0,0,0,0,0,0,0,0,0,0,0,0,0,0,0,0,0,0,0,0,0,0,0,0,0,1.439,1.4392,0,1.4512,1.4513,1.4515,1.455,1.4549,1.4549,1.4548,1.4674,1.4677,1.4681,0,0,0,0,0,0,0,0,0,0,0,0,0,1.4189,1.4192,1.439,1.4392,1.4393,1.4512,1.4513,1.4515,1.455,1.4549,1.4548,1.4548,1.4672,1.4677,1.4682,0,0,0,0,0,0,0,0,0,0,0,0,0,1.429,1.4193,1.439,1.4425,1.4429,1.4511,1.4513,1.4516,1.455,1.4549,1.4548,1.4547,1.4671,1.4677,1.4682,1.4739,0,0,1.4701,1.4703,0,0,0,0,0,0,0,0,1.4284,1.4297,1.4418,1.4423,1.4428,1.4515,1.4489,1.459,1.455,1.4504,1.4548,1.4547,1.4622,1.4632,1.4657,1.4745,1.475,1.4701,1.4705,1.4707,1.4709,0,0,0,0,0,0,0,1.4277,1.4292,1.4438,1.442,1.4426,1.4435,1.4448,1.4508,1.4567,1.4508,1.4511,1.4525,1.4624,1.4651,1.466,1.4752,1.4701,1.4706,1.471,1.4712,1.4893,1.4894,0,0,0,0,0,0,1.4264,1.4286,1.4435,1.4442,1.4352,1.4439,1.4454,1.4488,1.4566,1.4577,1.4526,1.4526,1.4641,1.4653,1.4664,1.4736,1.4707,1.4713,1.4716,1.4891,1.4893,1.4894,0,0,0,0,0,0,1.426,1.4277,1.443,1.4365,1.4385,1.4444,1.4481,1.4491,1.4518,1.458,1.459,1.4542,1.4641,1.4656,1.472,1.4741,1.4715,1.4721,1.489,1.4892,1.4894,1.4879,0,0,0,0,0,0,1.4254,1.4275,1.4297,1.4365,1.4388,1.4483,1.4483,1.4494,1.4528,1.4529,1.4598,1.4608,1.4641,1.4711,1.4726,1.4748,1.4725,1.4888,1.4891,1.4893,1.4878,1.488,1.4882,0,0,0,0,0,1.4246,1.4288,1.4298,1.4316,1.4417,1.4484,1.4497,1.4534,1.4529,1.4552,1.4592,1.4606,1.4736,1.4717,1.4734,1.4759,1.4887,1.489,1.4893,1.4877,1.488,1.4882,0,0,0,0,0,0,1.4221,1.4298,1.4309,1.4375,1.4423,1.449,1.452,1.4536,1.4586,1.4586,1.4629,1.4645,1.4706,1.4739,1.4717,1.4818,1.4812,1.4818,1.4794,1.4797,1.4799,1.479,1.473,0,0,0,0,0,1.4223,1.4271,1.4336,1.4387,1.441,1.4461,1.4491,1.4515,1.4567,1.4587,1.4632,1.4682,1.4734,1.4767,1.4819,1.4883,1.4898,1.4908,1.491,1.4911,1.4917,1.4953,1.4958,1.4903,1.4903,1.4903,0,0,1.4228,1.4276,1.4304,1.4383,1.4423,1.4472,1.4478,1.4529,1.4566,1.4595,1.4659,1.4693,1.4751,1.4816,1.4846,1.4845,1.4935,1.4915,1.4916,1.492,1.4957,1.4962,1.4966,1.4905,1.4905,1.4905,0,0,1.4262,1.4303,1.435,1.439,1.445,1.4483,1.4495,1.456,1.4584,1.4647,1.4671,1.4715,1.4804,1.4844,1.4877,1.4925,1.4941,1.4941,1.4952,1.4987,1.4991,1.4995,1.5013,1.5019,1.4946,1.4946,1.4946,0,1.4261,1.4335,1.4373,1.4423,1.4457,1.4486,1.4534,1.4571,1.4645,1.4668,1.4666,1.4777,1.4819,1.4893,1.4905,1.493,1.4944,1.4934,1.4988,1.4992,1.4997,1.5014,1.5021,1.4945,1.4945,1.4945,1.4945,0,1.4331,1.4382,1.4413,1.4483,1.4521,1.457,1.4615,1.4649,1.4669,1.4703,1.4768,1.4818,1.488,1.4899,1.492,1.4977,1.4974,1.4979,1.4974,1.5001,1.5018,1.5025,1.4945,1.4945,1.4945,1.4945,0,0,1.4353,1.4443,1.4454,1.4486,1.4555,1.4595,1.4645,1.4706,1.4734,1.4784,1.4827,1.4901,1.4906,1.4943,1.4968,1.4999,1.5035,1.5,1.5002,1.5005,1.5101,1.5097,1.5104,1.5045,1.5046,1.5048,1.5096,0,1.4396,1.4487,1.4522,1.4596,1.4644,1.4671,1.4715,1.4762,1.4795,1.484,1.4876,1.4928,1.493,1.4953,1.4984,1.5024,1.5055,1.5021,1.5087,1.5089,1.5072,1.5113,1.511,1.5153,1.5103,1.5104,1.5105,0,1.4459,1.4509,1.4588,1.465,1.4672,1.471,1.4768,1.4811,1.4865,1.4886,1.4927,1.495,1.5004,1.4995,1.5071,1.5047,1.5076,1.5099,1.5102,1.511,1.5099,1.5123,1.5168,1.5174,1.5116,1.5115,1.5114,0,1.4468,1.4555,1.4614,1.464,1.4714,1.4741,1.4773,1.4826,1.486,1.491,1.4933,1.4989,1.502,1.5063,1.5101,1.5091,1.5173,1.5167,1.5193,1.5192,1.521,1.5208,1.526,1.5227,1.5227,1.5227,1.5227,0,1.4513,1.456,1.4619,1.4655,1.4709,1.4748,1.48,1.4834,1.4881,1.4924,1.4951,1.4991,1.5039,1.5085,1.5115,1.5173,1.5187,1.5206,1.5213,1.5204,1.5202,1.5224,1.5222,1.5229,1.5228,1.5228,1.5228,0,1.4532,1.4573,1.4639,1.4703,1.4721,1.4758,1.4813,1.4849,1.4882,1.4937,1.4952,1.5004,1.506,1.5102,1.5175,1.5195,1.5257,1.5265,1.5239,1.5243,1.5266,1.5264,1.5335,1.5346,1.5305,1.5305,1.5305,0,1.4558,1.4595,1.4664,1.4694,1.4726,1.4775,1.481,1.485,1.4885,1.4949,1.4977,1.5035,1.5083,1.5171,1.5216,1.5272,1.5281,1.5303,1.529,1.5279,1.5282,1.528,1.5284,1.5304,1.5305,1.5305,1.5305,0,1.4601,1.4619,1.4668,1.4724,1.4764,1.481,1.4857,1.488,1.4929,1.4967,1.5024,1.5061,1.5135,1.5192,1.5252,1.5286,1.5304,1.5308,1.5318,1.5308,1.5292,1.5302,1.5244,1.5307,1.5307,1.5307,1.5307,1.5306,1.4625,1.4659,1.4712,1.4766,1.4805,1.4847,1.4885,1.4922,1.4971,1.5034,1.5054,1.5114,1.5166,1.5249,1.5283,1.533,1.533,1.5343,1.5346,1.5349,1.5348,1.5284,1.5341,1.5341,1.5341,1.5341,1.5341,0,1.4669,1.4704,1.4753,1.4817,1.4859,1.4871,1.4923,1.4958,1.5009,1.5057,1.5104,1.5169,1.5225,1.5274,1.5331,1.5359,1.5369,1.5373,1.5372,1.5379,1.5345,1.5331,1.5365,1.5364,1.5364,1.5364,1.5364,1.5364,1.4697,1.4755,1.478,1.4858,1.4893,1.4951,1.498,1.502,1.5058,1.513,1.5176,1.5207,1.5255,1.5316,1.5368,1.5381,1.5401,1.5403,1.5418,1.5385,1.5382,1.5379,1.5367,1.5407,1.5407,1.5449,1.545,1.545]}]]